Year,Month,Day,Hour,Minute,Value (Times are PST for temperature in C)
2013,08,01,00,00,14.20
2013,08,01,00,01,14.20
2013,08,01,00,02,14.20
2013,08,01,00,03,14.20
2013,08,01,00,04,14.20
2013,08,01,00,05,14.20
2013,08,01,00,06,14.20
2013,08,01,00,07,14.20
2013,08,01,00,08,14.20
2013,08,01,00,09,14.20
2013,08,01,00,10,14.20
2013,08,01,00,11,14.20
2013,08,01,00,12,14.20
2013,08,01,00,13,14.20
2013,08,01,00,14,14.20
2013,08,01,00,15,14.20
2013,08,01,00,16,14.20
2013,08,01,00,17,14.20
2013,08,01,00,18,14.20
2013,08,01,00,19,14.30
2013,08,01,00,20,14.30
2013,08,01,00,21,14.40
2013,08,01,00,22,14.50
2013,08,01,00,23,14.50
2013,08,01,00,24,14.60
2013,08,01,00,25,14.70
2013,08,01,00,26,14.70
2013,08,01,00,27,14.80
2013,08,01,00,28,14.80
2013,08,01,00,29,14.80
2013,08,01,00,30,14.80
2013,08,01,00,31,14.80
2013,08,01,00,32,14.80
2013,08,01,00,33,14.80
2013,08,01,00,34,14.80
2013,08,01,00,35,14.80
2013,08,01,00,36,14.80
2013,08,01,00,37,14.80
2013,08,01,00,38,14.70
2013,08,01,00,39,14.70
2013,08,01,00,40,14.70
2013,08,01,00,41,14.70
2013,08,01,00,42,14.70
2013,08,01,00,43,14.70
2013,08,01,00,44,14.60
2013,08,01,00,45,14.60
2013,08,01,00,46,14.60
2013,08,01,00,47,14.60
2013,08,01,00,48,14.50
2013,08,01,00,49,14.50
2013,08,01,00,50,14.50
2013,08,01,00,51,14.50
2013,08,01,00,52,14.40
2013,08,01,00,53,14.40
2013,08,01,00,54,14.40
2013,08,01,00,55,14.40
2013,08,01,00,56,14.40
2013,08,01,00,57,14.40
2013,08,01,00,58,14.40
2013,08,01,00,59,14.40
2013,08,01,01,00,14.40
2013,08,01,01,01,14.40
2013,08,01,01,02,14.30
2013,08,01,01,03,14.30
2013,08,01,01,04,14.30
2013,08,01,01,05,14.30
2013,08,01,01,06,14.30
2013,08,01,01,07,14.30
2013,08,01,01,08,14.30
2013,08,01,01,09,14.30
2013,08,01,01,10,14.30
2013,08,01,01,11,14.30
2013,08,01,01,12,14.30
2013,08,01,01,13,14.30
2013,08,01,01,14,14.30
2013,08,01,01,15,14.30
2013,08,01,01,16,14.30
2013,08,01,01,17,14.30
2013,08,01,01,18,14.30
2013,08,01,01,19,14.30
2013,08,01,01,20,14.30
2013,08,01,01,21,14.30
2013,08,01,01,22,14.40
2013,08,01,01,23,14.40
2013,08,01,01,24,14.40
2013,08,01,01,25,14.40
2013,08,01,01,26,14.40
2013,08,01,01,27,14.40
2013,08,01,01,28,14.40
2013,08,01,01,29,14.30
2013,08,01,01,30,14.30
2013,08,01,01,31,14.30
2013,08,01,01,32,14.30
2013,08,01,01,33,14.30
2013,08,01,01,34,14.30
2013,08,01,01,35,14.30
2013,08,01,01,36,14.30
2013,08,01,01,37,14.20
2013,08,01,01,38,14.20
2013,08,01,01,39,14.20
2013,08,01,01,40,14.20
2013,08,01,01,41,14.20
2013,08,01,01,42,14.20
2013,08,01,01,43,14.10
2013,08,01,01,44,14.10
2013,08,01,01,45,14.10
2013,08,01,01,46,14.10
2013,08,01,01,47,14.10
2013,08,01,01,48,14.10
2013,08,01,01,49,14.10
2013,08,01,01,50,14.10
2013,08,01,01,51,14.10
2013,08,01,01,52,14.10
2013,08,01,01,53,14.10
2013,08,01,01,54,14.10
2013,08,01,01,55,14.10
2013,08,01,01,56,14.00
2013,08,01,01,57,14.00
2013,08,01,01,58,14.00
2013,08,01,01,59,14.00
2013,08,01,02,00,14.00
2013,08,01,02,01,13.90
2013,08,01,02,02,13.90
2013,08,01,02,03,13.90
2013,08,01,02,04,13.90
2013,08,01,02,05,13.90
2013,08,01,02,06,13.90
2013,08,01,02,07,13.90
2013,08,01,02,08,13.90
2013,08,01,02,09,13.90
2013,08,01,02,10,13.90
2013,08,01,02,11,13.90
2013,08,01,02,12,13.90
2013,08,01,02,13,13.90
2013,08,01,02,14,13.80
2013,08,01,02,15,13.80
2013,08,01,02,16,13.80
2013,08,01,02,17,13.80
2013,08,01,02,18,13.70
2013,08,01,02,19,13.70
2013,08,01,02,20,13.70
2013,08,01,02,21,13.70
2013,08,01,02,22,13.70
2013,08,01,02,23,13.70
2013,08,01,02,24,13.60
2013,08,01,02,25,13.60
2013,08,01,02,26,13.60
2013,08,01,02,27,13.60
2013,08,01,02,28,13.60
2013,08,01,02,29,13.60
2013,08,01,02,30,13.50
2013,08,01,02,31,13.50
2013,08,01,02,32,13.60
2013,08,01,02,33,13.60
2013,08,01,02,34,13.60
2013,08,01,02,35,13.60
2013,08,01,02,36,13.60
2013,08,01,02,37,13.60
2013,08,01,02,38,13.60
2013,08,01,02,39,13.70
2013,08,01,02,40,13.70
2013,08,01,02,41,13.80
2013,08,01,02,42,13.80
2013,08,01,02,43,13.80
2013,08,01,02,44,13.80
2013,08,01,02,45,13.80
2013,08,01,02,46,13.80
2013,08,01,02,47,13.80
2013,08,01,02,48,13.80
2013,08,01,02,49,13.80
2013,08,01,02,50,13.80
2013,08,01,02,51,13.80
2013,08,01,02,52,13.80
2013,08,01,02,53,13.80
2013,08,01,02,54,13.80
2013,08,01,02,55,13.80
2013,08,01,02,56,13.70
2013,08,01,02,57,13.70
2013,08,01,02,58,13.70
2013,08,01,02,59,13.70
2013,08,01,03,00,13.70
2013,08,01,03,01,13.70
2013,08,01,03,02,13.70
2013,08,01,03,03,13.70
2013,08,01,03,04,13.60
2013,08,01,03,05,13.60
2013,08,01,03,06,13.60
2013,08,01,03,07,13.60
2013,08,01,03,08,13.60
2013,08,01,03,09,13.60
2013,08,01,03,10,13.60
2013,08,01,03,11,13.60
2013,08,01,03,12,13.60
2013,08,01,03,13,13.60
2013,08,01,03,14,13.50
2013,08,01,03,15,13.50
2013,08,01,03,16,13.50
2013,08,01,03,17,13.50
2013,08,01,03,18,13.50
2013,08,01,03,19,13.40
2013,08,01,03,20,13.40
2013,08,01,03,21,13.40
2013,08,01,03,22,13.40
2013,08,01,03,23,13.40
2013,08,01,03,24,13.40
2013,08,01,03,25,13.40
2013,08,01,03,26,13.40
2013,08,01,03,27,13.40
2013,08,01,03,28,13.40
2013,08,01,03,29,13.40
2013,08,01,03,30,13.40
2013,08,01,03,31,13.40
2013,08,01,03,32,13.40
2013,08,01,03,33,13.40
2013,08,01,03,34,13.40
2013,08,01,03,35,13.40
2013,08,01,03,36,13.30
2013,08,01,03,37,13.30
2013,08,01,03,38,13.30
2013,08,01,03,39,13.30
2013,08,01,03,40,13.20
2013,08,01,03,41,13.20
2013,08,01,03,42,13.20
2013,08,01,03,43,13.10
2013,08,01,03,44,13.10
2013,08,01,03,45,13.10
2013,08,01,03,46,13.10
2013,08,01,03,47,13.00
2013,08,01,03,48,13.00
2013,08,01,03,49,13.00
2013,08,01,03,50,13.00
2013,08,01,03,51,13.00
2013,08,01,03,52,13.00
2013,08,01,03,53,13.00
2013,08,01,03,54,13.00
2013,08,01,03,55,12.90
2013,08,01,03,56,12.90
2013,08,01,03,57,12.90
2013,08,01,03,58,12.90
2013,08,01,03,59,12.90
2013,08,01,04,00,12.90
2013,08,01,04,01,12.90
2013,08,01,04,02,12.90
2013,08,01,04,03,12.90
2013,08,01,04,04,12.90
2013,08,01,04,05,13.00
2013,08,01,04,06,13.00
2013,08,01,04,07,13.00
2013,08,01,04,08,13.00
2013,08,01,04,09,13.10
2013,08,01,04,10,13.10
2013,08,01,04,11,13.10
2013,08,01,04,12,13.10
2013,08,01,04,13,13.20
2013,08,01,04,14,13.20
2013,08,01,04,15,13.20
2013,08,01,04,16,13.20
2013,08,01,04,17,13.20
2013,08,01,04,18,13.20
2013,08,01,04,19,13.20
2013,08,01,04,20,13.20
2013,08,01,04,21,13.20
2013,08,01,04,22,13.20
2013,08,01,04,23,13.30
2013,08,01,04,24,13.30
2013,08,01,04,25,13.30
2013,08,01,04,26,13.30
2013,08,01,04,27,13.30
2013,08,01,04,28,13.30
2013,08,01,04,29,13.30
2013,08,01,04,30,13.30
2013,08,01,04,31,13.30
2013,08,01,04,32,13.30
2013,08,01,04,33,13.30
2013,08,01,04,34,13.30
2013,08,01,04,35,13.30
2013,08,01,04,36,13.30
2013,08,01,04,37,13.30
2013,08,01,04,38,13.30
2013,08,01,04,39,13.30
2013,08,01,04,40,13.30
2013,08,01,04,41,13.20
2013,08,01,04,42,13.20
2013,08,01,04,43,13.20
2013,08,01,04,44,13.20
2013,08,01,04,45,13.10
2013,08,01,04,46,13.10
2013,08,01,04,47,13.10
2013,08,01,04,48,13.10
2013,08,01,04,49,13.00
2013,08,01,04,50,13.00
2013,08,01,04,51,12.90
2013,08,01,04,52,12.90
2013,08,01,04,53,12.90
2013,08,01,04,54,12.90
2013,08,01,04,55,12.90
2013,08,01,04,56,12.90
2013,08,01,04,57,12.90
2013,08,01,04,58,12.90
2013,08,01,04,59,12.90
2013,08,01,05,00,12.80
2013,08,01,05,01,12.80
2013,08,01,05,02,12.80
2013,08,01,05,03,12.80
2013,08,01,05,04,12.70
2013,08,01,05,05,12.70
2013,08,01,05,06,12.70
2013,08,01,05,07,12.70
2013,08,01,05,08,12.70
2013,08,01,05,09,12.70
2013,08,01,05,10,12.70
2013,08,01,05,11,12.70
2013,08,01,05,12,12.70
2013,08,01,05,13,12.70
2013,08,01,05,14,12.70
2013,08,01,05,15,12.70
2013,08,01,05,16,12.60
2013,08,01,05,17,12.70
2013,08,01,05,18,12.70
2013,08,01,05,19,12.70
2013,08,01,05,20,12.70
2013,08,01,05,21,12.70
2013,08,01,05,22,12.70
2013,08,01,05,23,12.70
2013,08,01,05,24,12.60
2013,08,01,05,25,12.60
2013,08,01,05,26,12.60
2013,08,01,05,27,12.60
2013,08,01,05,28,12.60
2013,08,01,05,29,12.60
2013,08,01,05,30,12.50
2013,08,01,05,31,12.50
2013,08,01,05,32,12.40
2013,08,01,05,33,12.40
2013,08,01,05,34,12.40
2013,08,01,05,35,12.40
2013,08,01,05,36,12.40
2013,08,01,05,37,12.30
2013,08,01,05,38,12.30
2013,08,01,05,39,12.30
2013,08,01,05,40,12.30
2013,08,01,05,41,12.30
2013,08,01,05,42,12.30
2013,08,01,05,43,12.30
2013,08,01,05,44,12.30
2013,08,01,05,45,12.30
2013,08,01,05,46,12.30
2013,08,01,05,47,12.30
2013,08,01,05,48,12.30
2013,08,01,05,49,12.30
2013,08,01,05,50,12.30
2013,08,01,05,51,12.30
2013,08,01,05,52,12.30
2013,08,01,05,53,12.30
2013,08,01,05,54,12.30
2013,08,01,05,55,12.30
2013,08,01,05,56,12.20
2013,08,01,05,57,12.20
2013,08,01,05,58,12.20
2013,08,01,05,59,12.20
2013,08,01,06,00,12.20
2013,08,01,06,01,12.20
2013,08,01,06,02,12.20
2013,08,01,06,03,12.20
2013,08,01,06,04,12.20
2013,08,01,06,05,12.20
2013,08,01,06,06,12.20
2013,08,01,06,07,12.20
2013,08,01,06,08,12.20
2013,08,01,06,09,12.20
2013,08,01,06,10,12.20
2013,08,01,06,11,12.20
2013,08,01,06,12,12.20
2013,08,01,06,13,12.20
2013,08,01,06,14,12.20
2013,08,01,06,15,12.20
2013,08,01,06,16,12.20
2013,08,01,06,17,12.20
2013,08,01,06,18,12.20
2013,08,01,06,19,12.20
2013,08,01,06,20,12.20
2013,08,01,06,21,12.20
2013,08,01,06,22,12.20
2013,08,01,06,23,12.20
2013,08,01,06,24,12.20
2013,08,01,06,25,12.20
2013,08,01,06,26,12.20
2013,08,01,06,27,12.30
2013,08,01,06,28,12.30
2013,08,01,06,29,12.30
2013,08,01,06,30,12.30
2013,08,01,06,31,12.30
2013,08,01,06,32,12.30
2013,08,01,06,33,12.30
2013,08,01,06,34,12.30
2013,08,01,06,35,12.40
2013,08,01,06,36,12.40
2013,08,01,06,37,12.40
2013,08,01,06,38,12.40
2013,08,01,06,39,12.50
2013,08,01,06,40,12.50
2013,08,01,06,41,12.50
2013,08,01,06,42,12.60
2013,08,01,06,43,12.60
2013,08,01,06,44,12.60
2013,08,01,06,45,12.60
2013,08,01,06,46,12.70
2013,08,01,06,47,12.70
2013,08,01,06,48,12.70
2013,08,01,06,49,12.70
2013,08,01,06,50,12.80
2013,08,01,06,51,12.80
2013,08,01,06,52,12.80
2013,08,01,06,53,12.80
2013,08,01,06,54,12.80
2013,08,01,06,55,12.80
2013,08,01,06,56,12.80
2013,08,01,06,57,12.80
2013,08,01,06,58,12.90
2013,08,01,06,59,12.90
2013,08,01,07,00,12.90
2013,08,01,07,01,12.90
2013,08,01,07,02,12.90
2013,08,01,07,03,12.90
2013,08,01,07,04,13.00
2013,08,01,07,05,13.00
2013,08,01,07,06,13.00
2013,08,01,07,07,13.10
2013,08,01,07,08,13.10
2013,08,01,07,09,13.10
2013,08,01,07,10,13.10
2013,08,01,07,11,13.20
2013,08,01,07,12,13.20
2013,08,01,07,13,13.20
2013,08,01,07,14,13.20
2013,08,01,07,15,13.20
2013,08,01,07,16,13.20
2013,08,01,07,17,13.30
2013,08,01,07,18,13.30
2013,08,01,07,19,13.30
2013,08,01,07,20,13.30
2013,08,01,07,21,13.40
2013,08,01,07,22,13.40
2013,08,01,07,23,13.40
2013,08,01,07,24,13.40
2013,08,01,07,25,13.40
2013,08,01,07,26,13.40
2013,08,01,07,27,13.50
2013,08,01,07,28,13.50
2013,08,01,07,29,13.60
2013,08,01,07,30,13.60
2013,08,01,07,31,13.60
2013,08,01,07,32,13.60
2013,08,01,07,33,13.70
2013,08,01,07,34,13.70
2013,08,01,07,35,13.70
2013,08,01,07,36,13.80
2013,08,01,07,37,13.80
2013,08,01,07,38,13.80
2013,08,01,07,39,13.80
2013,08,01,07,40,13.80
2013,08,01,07,41,13.90
2013,08,01,07,42,13.90
2013,08,01,07,43,13.90
2013,08,01,07,44,14.00
2013,08,01,07,45,14.00
2013,08,01,07,46,14.00
2013,08,01,07,47,14.10
2013,08,01,07,48,14.10
2013,08,01,07,49,14.20
2013,08,01,07,50,14.20
2013,08,01,07,51,14.30
2013,08,01,07,52,14.30
2013,08,01,07,53,14.40
2013,08,01,07,54,14.40
2013,08,01,07,55,14.50
2013,08,01,07,56,14.50
2013,08,01,07,57,14.50
2013,08,01,07,58,14.60
2013,08,01,07,59,14.60
2013,08,01,08,00,14.60
2013,08,01,08,01,14.70
2013,08,01,08,02,14.70
2013,08,01,08,03,14.70
2013,08,01,08,04,14.70
2013,08,01,08,05,14.80
2013,08,01,08,06,14.80
2013,08,01,08,07,14.80
2013,08,01,08,08,14.80
2013,08,01,08,09,14.90
2013,08,01,08,10,14.90
2013,08,01,08,11,15.00
2013,08,01,08,12,15.00
2013,08,01,08,13,15.10
2013,08,01,08,14,15.10
2013,08,01,08,15,15.20
2013,08,01,08,16,15.20
2013,08,01,08,17,15.30
2013,08,01,08,18,15.30
2013,08,01,08,19,15.30
2013,08,01,08,20,15.30
2013,08,01,08,21,15.40
2013,08,01,08,22,15.40
2013,08,01,08,23,15.40
2013,08,01,08,24,15.40
2013,08,01,08,25,15.40
2013,08,01,08,26,15.40
2013,08,01,08,27,15.40
2013,08,01,08,28,15.40
2013,08,01,08,29,15.50
2013,08,01,08,30,15.50
2013,08,01,08,31,15.60
2013,08,01,08,32,15.60
2013,08,01,08,33,15.60
2013,08,01,08,34,15.70
2013,08,01,08,35,15.70
2013,08,01,08,36,15.70
2013,08,01,08,37,15.70
2013,08,01,08,38,15.80
2013,08,01,08,39,15.80
2013,08,01,08,40,15.90
2013,08,01,08,41,15.90
2013,08,01,08,42,16.00
2013,08,01,08,43,16.10
2013,08,01,08,44,16.10
2013,08,01,08,45,16.10
2013,08,01,08,46,16.20
2013,08,01,08,47,16.20
2013,08,01,08,48,16.20
2013,08,01,08,49,16.20
2013,08,01,08,50,16.20
2013,08,01,08,51,16.20
2013,08,01,08,52,16.20
2013,08,01,08,53,16.30
2013,08,01,08,54,16.30
2013,08,01,08,55,16.30
2013,08,01,08,56,16.30
2013,08,01,08,57,16.30
2013,08,01,08,58,16.40
2013,08,01,08,59,16.40
2013,08,01,09,00,16.50
2013,08,01,09,01,16.50
2013,08,01,09,02,16.60
2013,08,01,09,03,16.60
2013,08,01,09,04,16.60
2013,08,01,09,05,16.60
2013,08,01,09,06,16.60
2013,08,01,09,07,16.60
2013,08,01,09,08,16.60
2013,08,01,09,09,16.60
2013,08,01,09,10,16.60
2013,08,01,09,11,16.70
2013,08,01,09,12,16.70
2013,08,01,09,13,16.70
2013,08,01,09,14,16.70
2013,08,01,09,15,16.80
2013,08,01,09,16,16.90
2013,08,01,09,17,16.90
2013,08,01,09,18,17.00
2013,08,01,09,19,17.10
2013,08,01,09,20,17.10
2013,08,01,09,21,17.20
2013,08,01,09,22,17.20
2013,08,01,09,23,17.20
2013,08,01,09,24,17.20
2013,08,01,09,25,17.20
2013,08,01,09,26,17.30
2013,08,01,09,27,17.30
2013,08,01,09,28,17.30
2013,08,01,09,29,17.30
2013,08,01,09,30,17.30
2013,08,01,09,31,17.30
2013,08,01,09,32,17.30
2013,08,01,09,33,17.20
2013,08,01,09,34,17.20
2013,08,01,09,35,17.20
2013,08,01,09,36,17.20
2013,08,01,09,37,17.20
2013,08,01,09,38,17.20
2013,08,01,09,39,17.30
2013,08,01,09,40,17.30
2013,08,01,09,41,17.30
2013,08,01,09,42,17.20
2013,08,01,09,43,17.20
2013,08,01,09,44,17.20
2013,08,01,09,45,17.20
2013,08,01,09,46,17.20
2013,08,01,09,47,17.20
2013,08,01,09,48,17.20
2013,08,01,09,49,17.10
2013,08,01,09,50,17.00
2013,08,01,09,51,17.00
2013,08,01,09,52,16.90
2013,08,01,09,53,16.90
2013,08,01,09,54,16.90
2013,08,01,09,55,17.00
2013,08,01,09,56,17.10
2013,08,01,09,57,17.10
2013,08,01,09,58,17.20
2013,08,01,09,59,17.20
2013,08,01,10,00,17.20
2013,08,01,10,01,17.20
2013,08,01,10,02,17.20
2013,08,01,10,03,17.20
2013,08,01,10,04,17.20
2013,08,01,10,05,17.20
2013,08,01,10,06,17.20
2013,08,01,10,07,17.30
2013,08,01,10,08,17.40
2013,08,01,10,09,17.50
2013,08,01,10,10,17.60
2013,08,01,10,11,17.70
2013,08,01,10,12,17.80
2013,08,01,10,13,17.80
2013,08,01,10,14,17.80
2013,08,01,10,15,17.80
2013,08,01,10,16,17.80
2013,08,01,10,17,17.80
2013,08,01,10,18,17.80
2013,08,01,10,19,17.90
2013,08,01,10,20,17.90
2013,08,01,10,21,17.90
2013,08,01,10,22,17.90
2013,08,01,10,23,17.80
2013,08,01,10,24,17.80
2013,08,01,10,25,17.80
2013,08,01,10,26,17.70
2013,08,01,10,27,17.70
2013,08,01,10,28,17.70
2013,08,01,10,29,17.70
2013,08,01,10,30,17.70
2013,08,01,10,31,17.60
2013,08,01,10,32,17.60
2013,08,01,10,33,17.60
2013,08,01,10,34,17.60
2013,08,01,10,35,17.70
2013,08,01,10,36,17.70
2013,08,01,10,37,17.70
2013,08,01,10,38,17.70
2013,08,01,10,39,17.60
2013,08,01,10,40,17.50
2013,08,01,10,41,17.40
2013,08,01,10,42,17.50
2013,08,01,10,43,17.50
2013,08,01,10,44,17.60
2013,08,01,10,45,17.70
2013,08,01,10,46,17.80
2013,08,01,10,47,17.90
2013,08,01,10,48,18.00
2013,08,01,10,49,18.00
2013,08,01,10,50,18.10
2013,08,01,10,51,18.20
2013,08,01,10,52,18.30
2013,08,01,10,53,18.40
2013,08,01,10,54,18.60
2013,08,01,10,55,18.70
2013,08,01,10,56,18.80
2013,08,01,10,57,18.90
2013,08,01,10,58,19.00
2013,08,01,10,59,19.10
2013,08,01,11,00,19.30
2013,08,01,11,01,19.30
2013,08,01,11,02,19.40
2013,08,01,11,03,19.50
2013,08,01,11,04,19.60
2013,08,01,11,05,19.70
2013,08,01,11,06,19.70
2013,08,01,11,07,19.80
2013,08,01,11,08,19.90
2013,08,01,11,09,20.00
2013,08,01,11,10,20.00
2013,08,01,11,11,20.00
2013,08,01,11,12,20.00
2013,08,01,11,13,19.90
2013,08,01,11,14,19.90
2013,08,01,11,15,19.90
2013,08,01,11,16,19.80
2013,08,01,11,17,19.80
2013,08,01,11,18,19.80
2013,08,01,11,19,19.80
2013,08,01,11,20,19.80
2013,08,01,11,21,19.80
2013,08,01,11,22,19.90
2013,08,01,11,23,20.00
2013,08,01,11,24,20.10
2013,08,01,11,25,20.30
2013,08,01,11,26,20.40
2013,08,01,11,27,20.50
2013,08,01,11,28,20.60
2013,08,01,11,29,20.70
2013,08,01,11,30,20.80
2013,08,01,11,31,20.80
2013,08,01,11,32,20.80
2013,08,01,11,33,20.80
2013,08,01,11,34,20.90
2013,08,01,11,35,20.90
2013,08,01,11,36,21.00
2013,08,01,11,37,21.00
2013,08,01,11,38,21.00
2013,08,01,11,39,21.10
2013,08,01,11,40,21.10
2013,08,01,11,41,21.20
2013,08,01,11,42,21.20
2013,08,01,11,43,21.20
2013,08,01,11,44,21.20
2013,08,01,11,45,21.10
2013,08,01,11,46,21.10
2013,08,01,11,47,21.10
2013,08,01,11,48,21.00
2013,08,01,11,49,21.00
2013,08,01,11,50,21.10
2013,08,01,11,51,21.00
2013,08,01,11,52,20.90
2013,08,01,11,53,20.80
2013,08,01,11,54,20.70
2013,08,01,11,55,20.70
2013,08,01,11,56,20.70
2013,08,01,11,57,20.60
2013,08,01,11,58,20.60
2013,08,01,11,59,20.50
2013,08,01,12,00,20.30
2013,08,01,12,01,20.30
2013,08,01,12,02,20.20
2013,08,01,12,03,20.20
2013,08,01,12,04,20.20
2013,08,01,12,05,20.20
2013,08,01,12,06,20.20
2013,08,01,12,07,20.20
2013,08,01,12,08,20.30
2013,08,01,12,09,20.30
2013,08,01,12,10,20.50
2013,08,01,12,11,20.50
2013,08,01,12,12,20.50
2013,08,01,12,13,20.40
2013,08,01,12,14,20.30
2013,08,01,12,15,20.20
2013,08,01,12,16,20.10
2013,08,01,12,17,20.10
2013,08,01,12,18,20.10
2013,08,01,12,19,20.10
2013,08,01,12,20,20.10
2013,08,01,12,21,20.10
2013,08,01,12,22,20.10
2013,08,01,12,23,20.00
2013,08,01,12,24,20.00
2013,08,01,12,25,20.00
2013,08,01,12,26,19.90
2013,08,01,12,27,19.90
2013,08,01,12,28,19.90
2013,08,01,12,29,20.00
2013,08,01,12,30,20.10
2013,08,01,12,31,20.10
2013,08,01,12,32,20.10
2013,08,01,12,33,20.10
2013,08,01,12,34,20.10
2013,08,01,12,35,20.20
2013,08,01,12,36,20.10
2013,08,01,12,37,20.20
2013,08,01,12,38,20.20
2013,08,01,12,39,20.20
2013,08,01,12,40,20.20
2013,08,01,12,41,20.30
2013,08,01,12,42,20.40
2013,08,01,12,43,20.40
2013,08,01,12,44,20.50
2013,08,01,12,45,20.60
2013,08,01,12,46,20.60
2013,08,01,12,47,20.80
2013,08,01,12,48,20.80
2013,08,01,12,49,21.00
2013,08,01,12,50,21.10
2013,08,01,12,51,21.30
2013,08,01,12,52,21.40
2013,08,01,12,53,21.40
2013,08,01,12,54,21.40
2013,08,01,12,55,21.50
2013,08,01,12,56,21.50
2013,08,01,12,57,21.40
2013,08,01,12,58,21.30
2013,08,01,12,59,21.20
2013,08,01,13,00,21.00
2013,08,01,13,01,20.90
2013,08,01,13,02,20.90
2013,08,01,13,03,20.80
2013,08,01,13,04,20.80
2013,08,01,13,05,20.90
2013,08,01,13,06,20.90
2013,08,01,13,07,20.90
2013,08,01,13,08,20.90
2013,08,01,13,09,20.90
2013,08,01,13,10,20.90
2013,08,01,13,11,20.90
2013,08,01,13,12,20.90
2013,08,01,13,13,21.00
2013,08,01,13,14,21.10
2013,08,01,13,15,21.10
2013,08,01,13,16,21.10
2013,08,01,13,17,21.00
2013,08,01,13,18,21.00
2013,08,01,13,19,21.10
2013,08,01,13,20,21.10
2013,08,01,13,21,21.20
2013,08,01,13,22,21.30
2013,08,01,13,23,21.40
2013,08,01,13,24,21.40
2013,08,01,13,25,21.50
2013,08,01,13,26,21.50
2013,08,01,13,27,21.50
2013,08,01,13,28,21.50
2013,08,01,13,29,21.50
2013,08,01,13,30,21.60
2013,08,01,13,31,21.60
2013,08,01,13,32,21.60
2013,08,01,13,33,21.60
2013,08,01,13,34,21.60
2013,08,01,13,35,21.60
2013,08,01,13,36,21.60
2013,08,01,13,37,21.60
2013,08,01,13,38,21.50
2013,08,01,13,39,21.50
2013,08,01,13,40,21.50
2013,08,01,13,41,21.40
2013,08,01,13,42,21.20
2013,08,01,13,43,21.10
2013,08,01,13,44,21.10
2013,08,01,13,45,21.20
2013,08,01,13,46,21.30
2013,08,01,13,47,21.20
2013,08,01,13,48,21.20
2013,08,01,13,49,21.10
2013,08,01,13,50,21.00
2013,08,01,13,51,20.90
2013,08,01,13,52,20.90
2013,08,01,13,53,20.90
2013,08,01,13,54,21.00
2013,08,01,13,55,21.10
2013,08,01,13,56,21.30
2013,08,01,13,57,21.50
2013,08,01,13,58,21.70
2013,08,01,13,59,21.90
2013,08,01,14,00,21.90
2013,08,01,14,01,21.90
2013,08,01,14,02,21.90
2013,08,01,14,03,21.90
2013,08,01,14,04,21.90
2013,08,01,14,05,21.90
2013,08,01,14,06,22.00
2013,08,01,14,07,22.00
2013,08,01,14,08,22.10
2013,08,01,14,09,22.10
2013,08,01,14,10,22.10
2013,08,01,14,11,22.10
2013,08,01,14,12,22.10
2013,08,01,14,13,22.20
2013,08,01,14,14,22.20
2013,08,01,14,15,22.30
2013,08,01,14,16,22.40
2013,08,01,14,17,22.50
2013,08,01,14,18,22.60
2013,08,01,14,19,22.50
2013,08,01,14,20,22.50
2013,08,01,14,21,22.40
2013,08,01,14,22,22.30
2013,08,01,14,23,22.20
2013,08,01,14,24,22.20
2013,08,01,14,25,22.10
2013,08,01,14,26,22.10
2013,08,01,14,27,22.10
2013,08,01,14,28,22.00
2013,08,01,14,29,21.90
2013,08,01,14,30,21.80
2013,08,01,14,31,21.80
2013,08,01,14,32,21.70
2013,08,01,14,33,21.70
2013,08,01,14,34,21.70
2013,08,01,14,35,21.70
2013,08,01,14,36,21.80
2013,08,01,14,37,21.80
2013,08,01,14,38,21.90
2013,08,01,14,39,22.00
2013,08,01,14,40,22.10
2013,08,01,14,41,22.20
2013,08,01,14,42,22.30
2013,08,01,14,43,22.40
2013,08,01,14,44,22.40
2013,08,01,14,45,22.30
2013,08,01,14,46,22.20
2013,08,01,14,47,22.20
2013,08,01,14,48,22.10
2013,08,01,14,49,22.10
2013,08,01,14,50,22.10
2013,08,01,14,51,22.10
2013,08,01,14,52,22.10
2013,08,01,14,53,22.20
2013,08,01,14,54,22.20
2013,08,01,14,55,22.30
2013,08,01,14,56,22.30
2013,08,01,14,57,22.30
2013,08,01,14,58,22.40
2013,08,01,14,59,22.40
2013,08,01,15,00,22.30
2013,08,01,15,01,22.30
2013,08,01,15,02,22.30
2013,08,01,15,03,22.30
2013,08,01,15,04,22.40
2013,08,01,15,05,22.40
2013,08,01,15,06,22.30
2013,08,01,15,07,22.30
2013,08,01,15,08,22.30
2013,08,01,15,09,22.30
2013,08,01,15,10,22.30
2013,08,01,15,11,22.40
2013,08,01,15,12,22.40
2013,08,01,15,13,22.40
2013,08,01,15,14,22.40
2013,08,01,15,15,22.40
2013,08,01,15,16,22.30
2013,08,01,15,17,22.30
2013,08,01,15,18,22.30
2013,08,01,15,19,22.20
2013,08,01,15,20,22.20
2013,08,01,15,21,22.20
2013,08,01,15,22,22.20
2013,08,01,15,23,22.20
2013,08,01,15,24,22.30
2013,08,01,15,25,22.30
2013,08,01,15,26,22.30
2013,08,01,15,27,22.30
2013,08,01,15,28,22.30
2013,08,01,15,29,22.30
2013,08,01,15,30,22.40
2013,08,01,15,31,22.40
2013,08,01,15,32,22.40
2013,08,01,15,33,22.40
2013,08,01,15,34,22.40
2013,08,01,15,35,22.40
2013,08,01,15,36,22.40
2013,08,01,15,37,22.30
2013,08,01,15,38,22.30
2013,08,01,15,39,22.20
2013,08,01,15,40,22.20
2013,08,01,15,41,22.20
2013,08,01,15,42,22.20
2013,08,01,15,43,22.20
2013,08,01,15,44,22.20
2013,08,01,15,45,22.30
2013,08,01,15,46,22.40
2013,08,01,15,47,22.50
2013,08,01,15,48,22.60
2013,08,01,15,49,22.70
2013,08,01,15,50,22.70
2013,08,01,15,51,22.80
2013,08,01,15,52,22.80
2013,08,01,15,53,22.90
2013,08,01,15,54,22.90
2013,08,01,15,55,23.00
2013,08,01,15,56,23.00
2013,08,01,15,57,23.00
2013,08,01,15,58,23.00
2013,08,01,15,59,22.90
2013,08,01,16,00,23.00
2013,08,01,16,01,23.00
2013,08,01,16,02,23.10
2013,08,01,16,03,23.10
2013,08,01,16,04,23.20
2013,08,01,16,05,23.30
2013,08,01,16,06,23.30
2013,08,01,16,07,23.40
2013,08,01,16,08,23.50
2013,08,01,16,09,23.50
2013,08,01,16,10,23.50
2013,08,01,16,11,23.50
2013,08,01,16,12,23.40
2013,08,01,16,13,23.30
2013,08,01,16,14,23.30
2013,08,01,16,15,23.30
2013,08,01,16,16,23.30
2013,08,01,16,17,23.30
2013,08,01,16,18,23.20
2013,08,01,16,19,23.10
2013,08,01,16,20,23.10
2013,08,01,16,21,23.10
2013,08,01,16,22,23.00
2013,08,01,16,23,23.00
2013,08,01,16,24,22.90
2013,08,01,16,25,22.90
2013,08,01,16,26,22.90
2013,08,01,16,27,22.90
2013,08,01,16,28,22.90
2013,08,01,16,29,22.90
2013,08,01,16,30,22.80
2013,08,01,16,31,22.70
2013,08,01,16,32,22.60
2013,08,01,16,33,22.50
2013,08,01,16,34,22.40
2013,08,01,16,35,22.40
2013,08,01,16,36,22.30
2013,08,01,16,37,22.30
2013,08,01,16,38,22.30
2013,08,01,16,39,22.40
2013,08,01,16,40,22.40
2013,08,01,16,41,22.40
2013,08,01,16,42,22.30
2013,08,01,16,43,22.30
2013,08,01,16,44,22.30
2013,08,01,16,45,22.30
2013,08,01,16,46,22.30
2013,08,01,16,47,22.20
2013,08,01,16,48,22.20
2013,08,01,16,49,22.20
2013,08,01,16,50,22.10
2013,08,01,16,51,22.10
2013,08,01,16,52,22.10
2013,08,01,16,53,22.10
2013,08,01,16,54,22.00
2013,08,01,16,55,21.90
2013,08,01,16,56,21.80
2013,08,01,16,57,21.70
2013,08,01,16,58,21.60
2013,08,01,16,59,21.50
2013,08,01,17,00,21.50
2013,08,01,17,01,21.40
2013,08,01,17,02,21.40
2013,08,01,17,03,21.40
2013,08,01,17,04,21.40
2013,08,01,17,05,21.40
2013,08,01,17,06,21.40
2013,08,01,17,07,21.40
2013,08,01,17,08,21.40
2013,08,01,17,09,21.40
2013,08,01,17,10,21.30
2013,08,01,17,11,21.10
2013,08,01,17,12,20.90
2013,08,01,17,13,20.80
2013,08,01,17,14,20.60
2013,08,01,17,15,20.50
2013,08,01,17,16,20.40
2013,08,01,17,17,20.20
2013,08,01,17,18,20.00
2013,08,01,17,19,19.80